Time,TemperatureF,DewpointF,PressureIn,WindDirection,WindDirectionDegrees,WindSpeedMPH,WindSpeedGustMPH,Humidity,HourlyPrecipIn,Conditions,Clouds,dailyrainin,SoftwareType,DateUTC
2013-08-30 00:00:00,69.7,67.0,29.90,WSW,244,0.0,1.0,91,0.00,,CLR,0.00,VWS V14.01,2013-08-30 05:00:00,
2013-08-30 00:01:00,69.7,67.0,29.91,WSW,244,0.0,1.0,91,0.00,,CLR,0.00,VWS V14.01,2013-08-30 05:01:00,
2013-08-30 00:05:00,69.7,67.0,29.91,WSW,244,0.0,1.0,91,0.00,,CLR,0.00,VWS V14.01,2013-08-30 05:05:00,
2013-08-30 00:06:00,69.7,67.0,29.90,WSW,244,0.0,1.0,91,0.00,,CLR,0.00,VWS V14.01,2013-08-30 05:06:00,
2013-08-30 00:10:00,69.7,67.0,29.90,WSW,244,0.0,0.0,91,0.00,,CLR,0.00,VWS V14.01,2013-08-30 05:10:00,
2013-08-30 00:11:00,69.7,67.0,29.90,WSW,244,0.0,0.0,91,0.00,,CLR,0.00,VWS V14.01,2013-08-30 05:11:00,
2013-08-30 00:15:00,69.6,66.9,29.90,WSW,244,0.0,0.0,91,0.00,,CLR,0.00,VWS V14.01,2013-08-30 05:15:00,
2013-08-30 00:16:00,69.6,66.9,29.90,WSW,244,0.0,0.0,91,0.00,,CLR,0.00,VWS V14.01,2013-08-30 05:16:00,
2013-08-30 00:20:00,69.6,66.9,29.90,WSW,244,0.0,1.0,91,0.00,,CLR,0.00,VWS V14.01,2013-08-30 05:20:00,
2013-08-30 00:21:00,69.6,66.9,29.90,WSW,244,0.0,1.0,91,0.00,,CLR,0.00,VWS V14.01,2013-08-30 05:21:00,
2013-08-30 00:25:00,69.6,66.9,29.90,WSW,244,0.0,0.0,91,0.00,,CLR,0.00,VWS V14.01,2013-08-30 05:25:00,
2013-08-30 00:26:00,69.6,66.9,29.90,WSW,245,0.0,0.0,91,0.00,,CLR,0.00,VWS V14.01,2013-08-30 05:26:00,
2013-08-30 00:30:00,69.7,67.0,29.90,WSW,244,0.0,0.0,91,0.00,,CLR,0.00,VWS V14.01,2013-08-30 05:30:00,
2013-08-30 00:31:00,69.8,67.4,29.90,WSW,244,0.0,1.0,92,0.00,,CLR,0.00,VWS V14.01,2013-08-30 05:31:00,
2013-08-30 00:35:00,69.9,67.2,29.90,WSW,244,0.0,1.0,91,0.00,,CLR,0.00,VWS V14.01,2013-08-30 05:35:00,
2013-08-30 00:36:00,70.0,67.3,29.89,WSW,244,0.0,0.0,91,0.00,,CLR,0.00,VWS V14.01,2013-08-30 05:36:00,
2013-08-30 00:40:00,70.0,67.3,29.89,SW,220,0.0,1.0,91,0.00,,CLR,0.00,VWS V14.01,2013-08-30 05:40:00,
2013-08-30 00:41:00,70.1,67.4,29.89,South,188,0.0,1.0,91,0.00,,CLR,0.00,VWS V14.01,2013-08-30 05:41:00,
2013-08-30 00:45:00,70.2,67.4,29.89,SSW,205,0.0,0.0,91,0.00,,CLR,0.00,VWS V14.01,2013-08-30 05:45:00,
2013-08-30 00:47:00,70.2,67.1,29.89,SSW,205,0.0,0.0,90,0.00,,CLR,0.00,VWS V14.01,2013-08-30 05:47:00,
2013-08-30 00:50:00,70.3,67.2,29.89,SSW,205,0.0,1.0,90,0.00,,CLR,0.00,VWS V14.01,2013-08-30 05:50:00,
2013-08-30 00:52:00,70.3,67.2,29.89,SSW,206,0.0,0.0,90,0.00,,CLR,0.00,VWS V14.01,2013-08-30 05:52:00,
2013-08-30 00:55:00,70.3,67.2,29.89,SSW,206,0.0,0.0,90,0.00,,CLR,0.00,VWS V14.01,2013-08-30 05:55:00,
2013-08-30 00:57:00,70.4,67.3,29.89,SSW,206,0.0,0.0,90,0.00,,CLR,0.00,VWS V14.01,2013-08-30 05:57:00,
2013-08-30 01:00:00,70.4,67.3,29.89,North,360,0.0,1.0,90,0.00,,CLR,0.00,VWS V14.01,2013-08-30 06:00:00,
2013-08-30 01:02:00,70.4,67.3,29.89,North,360,0.0,1.0,90,0.00,,FEW250,0.00,VWS V14.01,2013-08-30 06:02:00,
2013-08-30 01:05:00,70.3,67.2,29.89,North,360,0.0,0.0,90,0.00,,CLR,0.00,VWS V14.01,2013-08-30 06:05:00,
2013-08-30 01:07:00,70.3,67.2,29.89,North,360,0.0,0.0,90,0.00,,FEW250,0.00,VWS V14.01,2013-08-30 06:07:00,
2013-08-30 01:10:00,70.3,67.2,29.89,North,360,0.0,0.0,90,0.00,,CLR,0.00,VWS V14.01,2013-08-30 06:10:00,
2013-08-30 01:12:00,70.3,67.2,29.89,SSW,205,0.0,0.0,90,0.00,,FEW250,0.00,VWS V14.01,2013-08-30 06:12:00,
2013-08-30 01:15:00,70.3,67.2,29.89,SSW,206,0.0,0.0,90,0.00,,CLR,0.00,VWS V14.01,2013-08-30 06:15:00,
2013-08-30 01:17:00,70.2,67.1,29.89,SSW,206,0.0,0.0,90,0.00,,FEW250,0.00,VWS V14.01,2013-08-30 06:17:00,
2013-08-30 01:20:00,70.2,67.1,29.89,SSW,206,0.0,0.0,90,0.00,,CLR,0.00,VWS V14.01,2013-08-30 06:20:00,
2013-08-30 01:22:00,70.2,67.1,29.89,SSW,206,0.0,0.0,90,0.00,,FEW250,0.00,VWS V14.01,2013-08-30 06:22:00,
2013-08-30 01:25:00,70.1,67.0,29.89,SSW,206,0.0,0.0,90,0.00,,CLR,0.00,VWS V14.01,2013-08-30 06:25:00,
2013-08-30 01:27:00,70.1,67.0,29.89,SSW,207,0.0,0.0,90,0.00,,FEW250,0.00,VWS V14.01,2013-08-30 06:27:00,
2013-08-30 01:30:00,70.1,67.0,29.89,SSW,207,0.0,0.0,90,0.00,,CLR,0.00,VWS V14.01,2013-08-30 06:30:00,
2013-08-30 01:32:00,70.1,67.4,29.89,SSW,206,0.0,0.0,91,0.00,,FEW250,0.00,VWS V14.01,2013-08-30 06:32:00,
2013-08-30 01:35:00,70.1,67.4,29.89,SSW,206,0.0,0.0,91,0.00,,CLR,0.00,VWS V14.01,2013-08-30 06:35:00,
2013-08-30 01:37:00,70.0,66.9,29.89,SSW,206,0.0,0.0,90,0.00,,FEW250,0.00,VWS V14.01,2013-08-30 06:37:00,
2013-08-30 01:40:00,70.0,66.9,29.89,SSW,206,0.0,0.0,90,0.00,,CLR,0.00,VWS V14.01,2013-08-30 06:40:00,
2013-08-30 01:42:00,69.9,66.8,29.89,SSW,206,0.0,0.0,90,0.00,,FEW250,0.00,VWS V14.01,2013-08-30 06:42:00,
2013-08-30 01:45:00,69.8,66.7,29.89,SSW,206,0.0,0.0,90,0.00,,CLR,0.00,VWS V14.01,2013-08-30 06:45:00,
2013-08-30 01:47:00,69.7,67.0,29.89,SSW,207,0.0,0.0,91,0.00,,FEW250,0.00,VWS V14.01,2013-08-30 06:47:00,
2013-08-30 01:50:00,69.7,67.0,29.89,SSW,206,0.0,0.0,91,0.00,,CLR,0.00,VWS V14.01,2013-08-30 06:50:00,
2013-08-30 01:52:00,69.6,66.9,29.89,SSW,207,0.0,0.0,91,0.00,,FEW250,0.00,VWS V14.01,2013-08-30 06:52:00,
2013-08-30 01:55:00,69.6,66.9,29.89,SSW,207,0.0,0.0,91,0.00,,CLR,0.00,VWS V14.01,2013-08-30 06:55:00,
2013-08-30 01:57:00,69.5,66.8,29.89,SSW,206,0.0,0.0,91,0.00,,FEW250,0.00,VWS V14.01,2013-08-30 06:57:00,
2013-08-30 02:00:00,69.5,66.8,29.89,SSW,206,0.0,0.0,91,0.00,,CLR,0.00,VWS V14.01,2013-08-30 07:00:00,
2013-08-30 02:02:00,69.5,66.8,29.89,SSW,206,0.0,0.0,91,0.00,,FEW250,0.00,VWS V14.01,2013-08-30 07:02:00,
2013-08-30 02:05:00,69.5,66.8,29.89,SSW,207,0.0,0.0,91,0.00,,CLR,0.00,VWS V14.01,2013-08-30 07:05:00,
2013-08-30 02:07:00,69.5,67.1,29.89,SSW,207,0.0,0.0,92,0.00,,FEW250,0.00,VWS V14.01,2013-08-30 07:07:00,
2013-08-30 02:10:00,69.5,67.1,29.88,SSW,206,0.0,0.0,92,0.00,,CLR,0.00,VWS V14.01,2013-08-30 07:10:00,
2013-08-30 02:12:00,69.5,66.8,29.88,SSW,207,0.0,0.0,91,0.00,,FEW250,0.00,VWS V14.01,2013-08-30 07:12:00,
2013-08-30 02:15:00,69.6,66.9,29.88,SSW,207,0.0,0.0,91,0.00,,CLR,0.00,VWS V14.01,2013-08-30 07:15:00,
2013-08-30 02:18:00,69.7,67.0,29.88,SSW,206,0.0,0.0,91,0.00,,FEW250,0.00,VWS V14.01,2013-08-30 07:18:00,
2013-08-30 02:20:00,69.7,67.0,29.88,SSW,206,0.0,0.0,91,0.00,,CLR,0.00,VWS V14.01,2013-08-30 07:20:00,
2013-08-30 02:23:00,69.7,67.0,29.87,SSW,206,0.0,0.0,91,0.00,,FEW250,0.00,VWS V14.01,2013-08-30 07:23:00,
2013-08-30 02:25:00,69.7,67.0,29.87,SSW,207,0.0,0.0,91,0.00,,CLR,0.00,VWS V14.01,2013-08-30 07:25:00,
2013-08-30 02:28:00,69.7,67.0,29.87,SSW,207,0.0,0.0,91,0.00,,FEW250,0.00,VWS V14.01,2013-08-30 07:28:00,
2013-08-30 02:30:00,69.7,67.0,29.87,SSW,207,0.0,0.0,91,0.00,,CLR,0.00,VWS V14.01,2013-08-30 07:30:00,
2013-08-30 02:33:00,69.5,66.4,29.87,SSW,207,0.0,0.0,90,0.00,,FEW250,0.00,VWS V14.01,2013-08-30 07:33:00,
2013-08-30 02:35:00,69.5,66.4,29.86,SSW,207,0.0,0.0,90,0.00,,CLR,0.00,VWS V14.01,2013-08-30 07:35:00,
2013-08-30 02:38:00,69.4,66.3,29.86,SSW,207,0.0,0.0,90,0.00,,FEW250,0.00,VWS V14.01,2013-08-30 07:38:00,
2013-08-30 02:40:00,69.3,66.6,29.86,SSW,206,0.0,0.0,91,0.00,,CLR,0.00,VWS V14.01,2013-08-30 07:40:00,
2013-08-30 02:43:00,69.2,66.5,29.86,SSW,207,0.0,0.0,91,0.00,,FEW250,0.00,VWS V14.01,2013-08-30 07:43:00,
2013-08-30 02:45:00,69.2,66.5,29.86,SSW,207,0.0,0.0,91,0.00,,CLR,0.00,VWS V14.01,2013-08-30 07:45:00,
2013-08-30 02:48:00,69.1,66.4,29.86,SSW,207,0.0,0.0,91,0.00,,FEW250,0.00,VWS V14.01,2013-08-30 07:48:00,
2013-08-30 02:50:00,69.1,66.7,29.86,SSW,207,0.0,0.0,92,0.00,,CLR,0.00,VWS V14.01,2013-08-30 07:50:00,
2013-08-30 02:53:00,69.1,66.4,29.85,SSW,207,0.0,0.0,91,0.00,,FEW250,0.00,VWS V14.01,2013-08-30 07:53:00,
2013-08-30 02:55:00,69.1,66.4,29.85,SSW,207,0.0,0.0,91,0.00,,CLR,0.00,VWS V14.01,2013-08-30 07:55:00,
2013-08-30 02:58:00,69.1,66.4,29.86,SSW,206,0.0,0.0,91,0.00,,FEW250,0.00,VWS V14.01,2013-08-30 07:58:00,
2013-08-30 03:00:00,69.0,66.3,29.85,SSW,206,0.0,0.0,91,0.00,,CLR,0.00,VWS V14.01,2013-08-30 08:00:00,
2013-08-30 03:03:00,69.0,66.3,29.85,SSW,207,0.0,0.0,91,0.00,,FEW250,0.00,VWS V14.01,2013-08-30 08:03:00,
2013-08-30 03:05:00,69.0,66.3,29.85,SSW,207,0.0,0.0,91,0.00,,CLR,0.00,VWS V14.01,2013-08-30 08:05:00,
2013-08-30 03:08:00,68.8,66.1,29.85,North,360,0.0,1.0,91,0.00,,FEW250,0.00,VWS V14.01,2013-08-30 08:08:00,
2013-08-30 03:10:00,68.8,66.1,29.84,North,360,3.0,3.0,91,0.00,,CLR,0.00,VWS V14.01,2013-08-30 08:10:00,
2013-08-30 03:13:00,68.9,66.5,29.84,North,360,1.0,7.0,92,0.00,,FEW250,0.00,VWS V14.01,2013-08-30 08:13:00,
2013-08-30 03:15:00,68.9,66.5,29.84,North,360,0.0,7.0,92,0.00,,CLR,0.00,VWS V14.01,2013-08-30 08:15:00,
2013-08-30 03:18:00,68.9,66.5,29.83,North,360,4.0,8.0,92,0.00,,FEW250,0.00,VWS V14.01,2013-08-30 08:18:00,
2013-08-30 03:20:00,69.0,66.6,29.83,SSW,207,6.0,9.0,92,0.00,,CLR,0.00,VWS V14.01,2013-08-30 08:20:00,
2013-08-30 03:23:00,69.1,66.4,29.83,SSW,193,7.0,9.0,91,0.00,,FEW250,0.00,VWS V14.01,2013-08-30 08:23:00,
2013-08-30 03:25:00,69.1,66.4,29.83,South,171,6.0,9.0,91,0.00,,CLR,0.00,VWS V14.01,2013-08-30 08:25:00,
2013-08-30 03:28:00,69.3,66.6,29.83,North,360,0.0,8.0,91,0.00,,FEW250,0.00,VWS V14.01,2013-08-30 08:28:00,
2013-08-30 03:30:00,69.3,66.6,29.83,North,360,3.0,8.0,91,0.00,,CLR,0.00,VWS V14.01,2013-08-30 08:30:00,
2013-08-30 03:33:00,69.3,66.6,29.83,North,360,0.0,4.0,91,0.00,,FEW250,0.00,VWS V14.01,2013-08-30 08:33:00,
2013-08-30 03:35:00,69.3,66.6,29.83,SSW,195,5.0,5.0,91,0.00,,CLR,0.00,VWS V14.01,2013-08-30 08:35:00,
2013-08-30 03:38:00,69.3,66.6,29.83,North,360,4.0,5.0,91,0.00,,FEW250,0.00,VWS V14.01,2013-08-30 08:38:00,
2013-08-30 03:40:00,69.3,66.2,29.83,South,172,1.0,5.0,90,0.00,,CLR,0.00,VWS V14.01,2013-08-30 08:40:00,
2013-08-30 03:43:00,69.3,66.2,29.82,SSW,204,2.0,7.0,90,0.00,,FEW250,0.00,VWS V14.01,2013-08-30 08:43:00,
2013-08-30 03:45:00,69.3,66.2,29.82,North,360,4.0,5.0,90,0.00,,CLR,0.00,VWS V14.01,2013-08-30 08:45:00,
2013-08-30 03:48:00,69.4,66.3,29.82,South,187,0.0,6.0,90,0.00,,FEW250,0.00,VWS V14.01,2013-08-30 08:48:00,
2013-08-30 03:50:00,69.4,66.3,29.82,North,360,0.0,6.0,90,0.00,,CLR,0.00,VWS V14.01,2013-08-30 08:50:00,
2013-08-30 03:53:00,69.5,66.4,29.82,SSW,210,0.0,1.0,90,0.00,,FEW250,0.00,VWS V14.01,2013-08-30 08:53:00,
2013-08-30 03:55:00,69.5,66.4,29.82,SSW,210,0.0,0.0,90,0.00,,CLR,0.00,VWS V14.01,2013-08-30 08:55:00,
2013-08-30 03:58:00,69.4,66.3,29.82,SSW,211,0.0,0.0,90,0.00,,FEW250,0.00,VWS V14.01,2013-08-30 08:58:00,
2013-08-30 04:00:00,69.5,66.4,29.82,SSW,211,0.0,0.0,90,0.00,,CLR,0.00,VWS V14.01,2013-08-30 09:00:00,
2013-08-30 04:04:00,69.4,66.3,29.82,SSW,211,0.0,1.0,90,0.00,,CLR,0.00,VWS V14.01,2013-08-30 09:04:00,
2013-08-30 04:05:00,69.4,66.3,29.82,SSW,211,0.0,1.0,90,0.00,,CLR,0.00,VWS V14.01,2013-08-30 09:05:00,
2013-08-30 04:09:00,69.4,66.3,29.82,SSW,211,0.0,0.0,90,0.00,,CLR,0.00,VWS V14.01,2013-08-30 09:09:00,
2013-08-30 04:10:00,69.4,66.3,29.82,SSW,211,0.0,0.0,90,0.00,,CLR,0.00,VWS V14.01,2013-08-30 09:10:00,
2013-08-30 04:14:00,69.4,66.3,29.82,SSW,211,0.0,0.0,90,0.00,,CLR,0.00,VWS V14.01,2013-08-30 09:14:00,
2013-08-30 04:15:00,69.4,66.3,29.82,SSW,211,0.0,0.0,90,0.00,,CLR,0.00,VWS V14.01,2013-08-30 09:15:00,
2013-08-30 04:19:00,69.5,66.4,29.82,SSW,211,0.0,1.0,90,0.00,,CLR,0.00,VWS V14.01,2013-08-30 09:19:00,
2013-08-30 04:20:00,69.5,66.4,29.82,SSW,211,0.0,1.0,90,0.00,,CLR,0.00,VWS V14.01,2013-08-30 09:20:00,
2013-08-30 04:24:00,69.5,66.4,29.82,SSW,211,0.0,0.0,90,0.00,,CLR,0.00,VWS V14.01,2013-08-30 09:24:00,
2013-08-30 04:25:00,69.5,66.4,29.82,SSW,211,0.0,0.0,90,0.00,,CLR,0.00,VWS V14.01,2013-08-30 09:25:00,
2013-08-30 04:29:00,69.5,66.4,29.82,SSW,211,0.0,1.0,90,0.00,,CLR,0.00,VWS V14.01,2013-08-30 09:29:00,
2013-08-30 04:30:00,69.5,66.4,29.82,SSW,211,0.0,1.0,90,0.00,,CLR,0.00,VWS V14.01,2013-08-30 09:30:00,
2013-08-30 04:34:00,69.5,66.4,29.82,SSW,211,0.0,0.0,90,0.00,,CLR,0.00,VWS V14.01,2013-08-30 09:34:00,
2013-08-30 04:35:00,69.5,66.4,29.82,SSW,211,0.0,0.0,90,0.00,,CLR,0.00,VWS V14.01,2013-08-30 09:35:00,
2013-08-30 04:39:00,69.4,66.3,29.82,SSW,211,0.0,1.0,90,0.00,,CLR,0.00,VWS V14.01,2013-08-30 09:39:00,
2013-08-30 04:40:00,69.4,66.3,29.82,SSW,211,0.0,1.0,90,0.00,,CLR,0.00,VWS V14.01,2013-08-30 09:40:00,
2013-08-30 04:44:00,69.3,66.2,29.82,SSW,211,0.0,1.0,90,0.00,,CLR,0.00,VWS V14.01,2013-08-30 09:44:00,
2013-08-30 04:45:00,69.3,66.2,29.82,SSW,211,0.0,1.0,90,0.00,,CLR,0.00,VWS V14.01,2013-08-30 09:45:00,
2013-08-30 04:49:00,69.3,66.6,29.82,SSW,211,0.0,0.0,91,0.00,,CLR,0.00,VWS V14.01,2013-08-30 09:49:00,
2013-08-30 04:50:00,69.2,66.2,29.82,SSW,211,0.0,0.0,90,0.00,,CLR,0.00,VWS V14.01,2013-08-30 09:50:00,
2013-08-30 04:54:00,69.3,66.6,29.82,SSW,211,0.0,5.0,91,0.00,,CLR,0.00,VWS V14.01,2013-08-30 09:54:00,
2013-08-30 04:55:00,69.3,66.6,29.82,SSW,211,0.0,5.0,91,0.00,,CLR,0.00,VWS V14.01,2013-08-30 09:55:00,
2013-08-30 04:59:00,69.5,66.4,29.82,SSW,211,0.0,0.0,90,0.00,,CLR,0.00,VWS V14.01,2013-08-30 09:59:00,
2013-08-30 05:00:00,69.4,66.3,29.82,SSW,211,0.0,1.0,90,0.00,,CLR,0.00,VWS V14.01,2013-08-30 10:00:00,
2013-08-30 05:04:00,69.6,66.5,29.82,SSW,211,0.0,1.0,90,0.00,,CLR,0.00,VWS V14.01,2013-08-30 10:04:00,
2013-08-30 05:05:00,69.6,66.5,29.82,SSW,211,0.0,1.0,90,0.00,,CLR,0.00,VWS V14.01,2013-08-30 10:05:00,
2013-08-30 05:09:00,69.7,66.6,29.82,SSW,211,0.0,0.0,90,0.00,,CLR,0.00,VWS V14.01,2013-08-30 10:09:00,
2013-08-30 05:10:00,69.7,66.6,29.82,SSW,211,0.0,0.0,90,0.00,,CLR,0.00,VWS V14.01,2013-08-30 10:10:00,
2013-08-30 05:14:00,69.8,66.4,29.82,SSW,211,0.0,0.0,89,0.00,,CLR,0.00,VWS V14.01,2013-08-30 10:14:00,
2013-08-30 05:15:00,69.7,66.3,29.82,SSW,211,0.0,0.0,89,0.00,,CLR,0.00,VWS V14.01,2013-08-30 10:15:00,
2013-08-30 05:19:00,69.8,66.4,29.82,SSW,211,0.0,0.0,89,0.00,,CLR,0.00,VWS V14.01,2013-08-30 10:19:00,
2013-08-30 05:20:00,69.8,66.4,29.82,SSW,211,0.0,0.0,89,0.00,,CLR,0.00,VWS V14.01,2013-08-30 10:20:00,
2013-08-30 05:24:00,69.8,66.4,29.82,SSW,211,0.0,0.0,89,0.00,,CLR,0.00,VWS V14.01,2013-08-30 10:24:00,
2013-08-30 05:25:00,69.8,66.4,29.82,SSW,211,0.0,0.0,89,0.00,,CLR,0.00,VWS V14.01,2013-08-30 10:25:00,
2013-08-30 05:30:00,69.7,66.3,29.82,SSW,211,0.0,0.0,89,0.00,,CLR,0.00,VWS V14.01,2013-08-30 10:30:00,
2013-08-30 05:35:00,69.6,66.5,29.82,SSW,211,0.0,0.0,90,0.00,,CLR,0.00,VWS V14.01,2013-08-30 10:35:00,
2013-08-30 05:40:00,69.4,66.3,29.82,SSW,211,0.0,0.0,90,0.00,,CLR,0.00,VWS V14.01,2013-08-30 10:40:00,
2013-08-30 05:45:00,69.2,66.2,29.82,SSW,211,0.0,0.0,90,0.00,,CLR,0.00,VWS V14.01,2013-08-30 10:45:00,
2013-08-30 05:50:00,69.1,66.4,29.82,SSW,211,0.0,0.0,91,0.00,,CLR,0.00,VWS V14.01,2013-08-30 10:50:00,
2013-08-30 05:55:00,69.0,66.3,29.82,SSW,211,0.0,0.0,91,0.00,,CLR,0.00,VWS V14.01,2013-08-30 10:55:00,
2013-08-30 06:00:00,69.0,66.3,29.82,SSW,211,0.0,0.0,91,0.00,,CLR,0.00,VWS V14.01,2013-08-30 11:00:00,
2013-08-30 06:05:00,68.9,66.2,29.82,SSW,211,0.0,0.0,91,0.00,,FEW250,0.00,VWS V14.01,2013-08-30 11:05:00,
2013-08-30 06:10:00,68.9,66.2,29.82,SSW,211,0.0,0.0,91,0.00,,FEW250,0.00,VWS V14.01,2013-08-30 11:10:00,
2013-08-30 06:15:00,69.1,66.4,29.81,SSW,211,0.0,0.0,91,0.00,,FEW250,0.00,VWS V14.01,2013-08-30 11:15:00,
2013-08-30 06:20:00,69.1,66.4,29.81,SSW,195,0.0,6.0,91,0.00,,FEW250,0.00,VWS V14.01,2013-08-30 11:20:00,
2013-08-30 06:25:00,69.1,66.4,29.81,North,360,6.0,6.0,91,0.00,,FEW250,0.00,VWS V14.01,2013-08-30 11:25:00,
2013-08-30 06:30:00,69.1,66.4,29.81,North,360,0.0,7.0,91,0.00,,FEW250,0.00,VWS V14.01,2013-08-30 11:30:00,
2013-08-30 06:35:00,69.2,66.5,29.81,SSW,204,0.0,6.0,91,0.00,,FEW250,0.00,VWS V14.01,2013-08-30 11:35:00,
2013-08-30 06:40:00,69.2,66.5,29.81,SSW,207,0.0,5.0,91,0.00,,FEW250,0.00,VWS V14.01,2013-08-30 11:40:00,
2013-08-30 06:45:00,69.3,66.6,29.81,South,181,2.0,8.0,91,0.00,,FEW250,0.00,VWS V14.01,2013-08-30 11:45:00,
2013-08-30 06:50:00,69.5,66.8,29.81,South,190,2.0,8.0,91,0.00,,FEW250,0.00,VWS V14.01,2013-08-30 11:50:00,
2013-08-30 06:55:00,69.8,67.1,29.80,SSE,167,0.0,4.0,91,0.00,,FEW250,0.00,VWS V14.01,2013-08-30 11:55:00,
2013-08-30 07:00:00,70.1,67.4,29.81,SW,220,10.0,10.0,91,0.00,,BKN250,0.00,VWS V14.01,2013-08-30 12:00:00,
2013-08-30 07:05:00,70.4,67.3,29.81,North,360,5.0,10.0,90,0.00,,CLR,0.00,VWS V14.01,2013-08-30 12:05:00,
2013-08-30 07:06:00,70.6,67.5,29.81,North,360,1.0,8.0,90,0.00,,BKN250,0.00,VWS V14.01,2013-08-30 12:06:00,
2013-08-30 07:10:00,70.7,67.6,29.80,South,180,6.0,11.0,90,0.00,,CLR,0.00,VWS V14.01,2013-08-30 12:10:00,
2013-08-30 07:11:00,70.8,67.7,29.81,SW,229,7.0,11.0,90,0.00,,BKN250,0.00,VWS V14.01,2013-08-30 12:11:00,
2013-08-30 07:15:00,71.0,67.9,29.81,North,360,6.0,9.0,90,0.00,,CLR,0.00,VWS V14.01,2013-08-30 12:15:00,
2013-08-30 07:16:00,71.1,68.0,29.81,North,360,5.0,10.0,90,0.00,,BKN250,0.00,VWS V14.01,2013-08-30 12:16:00,
2013-08-30 07:20:00,71.3,68.2,29.80,SSE,157,8.0,10.0,90,0.00,,CLR,0.00,VWS V14.01,2013-08-30 12:20:00,
2013-08-30 07:21:00,71.5,68.1,29.80,SW,226,5.0,9.0,89,0.00,,BKN250,0.00,VWS V14.01,2013-08-30 12:21:00,
2013-08-30 07:25:00,71.8,68.4,29.80,SSW,192,4.0,9.0,89,0.00,,CLR,0.00,VWS V14.01,2013-08-30 12:25:00,
2013-08-30 07:26:00,71.9,68.5,29.80,SSW,209,6.0,7.0,89,0.00,,BKN250,0.00,VWS V14.01,2013-08-30 12:26:00,
2013-08-30 07:30:00,72.2,68.4,29.80,SSW,204,8.0,11.0,88,0.00,,CLR,0.00,VWS V14.01,2013-08-30 12:30:00,
2013-08-30 07:31:00,72.3,68.6,29.80,South,182,4.0,11.0,88,0.00,,BKN250,0.00,VWS V14.01,2013-08-30 12:31:00,
2013-08-30 07:35:00,72.5,68.8,29.80,SSE,167,5.0,11.0,88,0.00,,CLR,0.00,VWS V14.01,2013-08-30 12:35:00,
2013-08-30 07:36:00,72.6,68.8,29.80,North,360,9.0,12.0,88,0.00,,BKN250,0.00,VWS V14.01,2013-08-30 12:36:00,
2013-08-30 07:40:00,72.8,69.0,29.80,SSW,212,7.0,13.0,88,0.00,,CLR,0.00,VWS V14.01,2013-08-30 12:40:00,
2013-08-30 07:41:00,72.9,69.1,29.80,South,174,3.0,10.0,88,0.00,,BKN250,0.00,VWS V14.01,2013-08-30 12:41:00,
2013-08-30 07:45:00,73.1,69.3,29.80,North,360,0.0,14.0,88,0.00,,CLR,0.00,VWS V14.01,2013-08-30 12:45:00,
2013-08-30 07:46:00,73.3,69.2,29.80,SSW,201,6.0,14.0,87,0.00,,BKN250,0.00,VWS V14.01,2013-08-30 12:46:00,
2013-08-30 07:50:00,73.5,69.4,29.79,North,360,6.0,13.0,87,0.00,,CLR,0.00,VWS V14.01,2013-08-30 12:50:00,
2013-08-30 07:51:00,73.6,69.5,29.79,SW,215,8.0,14.0,87,0.00,,BKN250,0.00,VWS V14.01,2013-08-30 12:51:00,
2013-08-30 07:55:00,73.9,69.8,29.79,North,360,8.0,14.0,87,0.00,,CLR,0.00,VWS V14.01,2013-08-30 12:55:00,
2013-08-30 07:56:00,74.0,69.9,29.79,SSW,198,7.0,14.0,87,0.00,,BKN250,0.00,VWS V14.01,2013-08-30 12:56:00,
2013-08-30 08:00:00,74.3,70.2,29.79,North,360,9.0,11.0,87,0.00,,CLR,0.00,VWS V14.01,2013-08-30 13:00:00,
2013-08-30 08:01:00,74.5,70.0,29.78,North,360,12.0,14.0,86,0.00,,SCT250,0.00,VWS V14.01,2013-08-30 13:01:00,
2013-08-30 08:05:00,74.7,70.2,29.79,SW,217,9.0,16.0,86,0.00,,CLR,0.00,VWS V14.01,2013-08-30 13:05:00,
2013-08-30 08:06:00,74.9,70.4,29.78,North,360,6.0,16.0,86,0.00,,SCT250,0.00,VWS V14.01,2013-08-30 13:06:00,
2013-08-30 08:10:00,75.1,70.6,29.78,South,188,4.0,12.0,86,0.00,,CLR,0.00,VWS V14.01,2013-08-30 13:10:00,
2013-08-30 08:11:00,75.3,70.5,29.78,SW,227,14.0,14.0,85,0.00,,SCT250,0.00,VWS V14.01,2013-08-30 13:11:00,
2013-08-30 08:15:00,75.5,70.7,29.78,SW,224,8.0,15.0,85,0.00,,CLR,0.00,VWS V14.01,2013-08-30 13:15:00,
2013-08-30 08:16:00,75.7,70.9,29.78,SSW,200,9.0,15.0,85,0.00,,SCT250,0.00,VWS V14.01,2013-08-30 13:16:00,
2013-08-30 08:20:00,75.8,70.6,29.78,WSW,251,4.0,15.0,84,0.00,,CLR,0.00,VWS V14.01,2013-08-30 13:20:00,
2013-08-30 08:21:00,76.0,70.8,29.77,North,360,6.0,15.0,84,0.00,,SCT250,0.00,VWS V14.01,2013-08-30 13:21:00,
2013-08-30 08:25:00,76.1,70.6,29.77,North,360,6.0,17.0,83,0.00,,CLR,0.00,VWS V14.01,2013-08-30 13:25:00,
2013-08-30 08:26:00,76.2,70.7,29.77,South,169,9.0,17.0,83,0.00,,SCT250,0.00,VWS V14.01,2013-08-30 13:26:00,
2013-08-30 08:30:00,76.4,70.9,29.77,SW,232,7.0,15.0,83,0.00,,CLR,0.00,VWS V14.01,2013-08-30 13:30:00,
2013-08-30 08:31:00,76.6,71.1,29.77,SW,230,6.0,15.0,83,0.00,,SCT250,0.00,VWS V14.01,2013-08-30 13:31:00,
2013-08-30 08:35:00,76.7,70.8,29.77,North,360,8.0,16.0,82,0.00,,CLR,0.00,VWS V14.01,2013-08-30 13:35:00,
2013-08-30 08:36:00,76.9,71.0,29.77,North,360,7.0,16.0,82,0.00,,SCT250,0.00,VWS V14.01,2013-08-30 13:36:00,
2013-08-30 08:40:00,77.0,71.1,29.77,North,360,10.0,17.0,82,0.00,,CLR,0.00,VWS V14.01,2013-08-30 13:40:00,
2013-08-30 08:41:00,77.2,71.3,29.77,North,360,3.0,17.0,82,0.00,,SCT250,0.00,VWS V14.01,2013-08-30 13:41:00,
2013-08-30 08:45:00,77.3,71.4,29.77,North,360,3.0,16.0,82,0.00,,CLR,0.00,VWS V14.01,2013-08-30 13:45:00,
2013-08-30 08:46:00,77.5,71.2,29.77,SW,232,10.0,16.0,81,0.00,,SCT250,0.00,VWS V14.01,2013-08-30 13:46:00,
2013-08-30 08:50:00,77.7,71.4,29.77,SW,216,4.0,15.0,81,0.00,,CLR,0.00,VWS V14.01,2013-08-30 13:50:00,
2013-08-30 08:51:00,78.0,71.7,29.77,WSW,240,7.0,13.0,81,0.00,,SCT250,0.00,VWS V14.01,2013-08-30 13:51:00,
2013-08-30 08:55:00,78.2,71.9,29.77,West,269,6.0,18.0,81,0.00,,CLR,0.00,VWS V14.01,2013-08-30 13:55:00,
2013-08-30 08:57:00,78.5,72.2,29.77,SSW,200,1.0,14.0,81,0.00,,SCT250,0.00,VWS V14.01,2013-08-30 13:57:00,
2013-08-30 09:00:00,78.8,72.5,29.77,North,360,5.0,10.0,81,0.00,,CLR,0.00,VWS V14.01,2013-08-30 14:00:00,
2013-08-30 09:02:00,79.1,72.4,29.77,South,178,10.0,18.0,80,0.00,,SCT250,0.00,VWS V14.01,2013-08-30 14:02:00,
2013-08-30 09:05:00,79.2,72.1,29.77,North,360,12.0,18.0,79,0.00,,CLR,0.00,VWS V14.01,2013-08-30 14:05:00,
2013-08-30 09:07:00,79.3,72.6,29.77,SW,215,9.0,15.0,80,0.00,,SCT250,0.00,VWS V14.01,2013-08-30 14:07:00,
2013-08-30 09:10:00,79.5,72.4,29.77,North,360,8.0,15.0,79,0.00,,CLR,0.00,VWS V14.01,2013-08-30 14:10:00,
2013-08-30 09:12:00,79.7,73.0,29.77,North,360,10.0,15.0,80,0.00,,SCT250,0.00,VWS V14.01,2013-08-30 14:12:00,
2013-08-30 09:15:00,80.0,72.9,29.77,North,360,8.0,17.0,79,0.00,,CLR,0.00,VWS V14.01,2013-08-30 14:15:00,
2013-08-30 09:17:00,80.1,73.0,29.77,SW,217,11.0,17.0,79,0.00,,SCT250,0.00,VWS V14.01,2013-08-30 14:17:00,
2013-08-30 09:20:00,80.1,73.0,29.76,North,360,7.0,14.0,79,0.00,,CLR,0.00,VWS V14.01,2013-08-30 14:20:00,
2013-08-30 09:22:00,80.2,73.5,29.76,North,360,12.0,13.0,80,0.00,,SCT250,0.00,VWS V14.01,2013-08-30 14:22:00,
2013-08-30 09:25:00,80.3,73.2,29.76,SSW,193,16.0,18.0,79,0.00,,CLR,0.00,VWS V14.01,2013-08-30 14:25:00,
2013-08-30 09:27:00,80.5,73.8,29.76,SW,232,8.0,18.0,80,0.00,,SCT250,0.00,VWS V14.01,2013-08-30 14:27:00,
2013-08-30 09:30:00,80.6,73.5,29.76,North,360,9.0,18.0,79,0.00,,CLR,0.00,VWS V14.01,2013-08-30 14:30:00,
2013-08-30 09:32:00,80.9,73.8,29.76,SW,228,9.0,15.0,79,0.00,,SCT250,0.00,VWS V14.01,2013-08-30 14:32:00,
2013-08-30 09:35:00,81.0,73.9,29.76,North,360,4.0,17.0,79,0.00,,CLR,0.00,VWS V14.01,2013-08-30 14:35:00,
2013-08-30 09:37:00,81.2,74.1,29.76,North,360,0.0,17.0,79,0.00,,SCT250,0.00,VWS V14.01,2013-08-30 14:37:00,
2013-08-30 09:40:00,81.3,73.8,29.76,SW,219,12.0,14.0,78,0.00,,CLR,0.00,VWS V14.01,2013-08-30 14:40:00,
2013-08-30 09:42:00,81.5,74.0,29.76,North,360,9.0,14.0,78,0.00,,SCT250,0.00,VWS V14.01,2013-08-30 14:42:00,
2013-08-30 09:45:00,81.7,74.2,29.76,South,169,6.0,12.0,78,0.00,,CLR,0.00,VWS V14.01,2013-08-30 14:45:00,
2013-08-30 09:47:00,82.1,74.2,29.76,WSW,240,13.0,17.0,77,0.00,,SCT250,0.00,VWS V14.01,2013-08-30 14:47:00,
2013-08-30 09:50:00,82.2,74.3,29.76,North,360,5.0,17.0,77,0.00,,CLR,0.00,VWS V14.01,2013-08-30 14:50:00,
2013-08-30 09:52:00,82.3,74.4,29.75,SSW,198,7.0,16.0,77,0.00,,SCT250,0.00,VWS V14.01,2013-08-30 14:52:00,
2013-08-30 09:55:00,82.3,74.4,29.75,North,360,7.0,18.0,77,0.00,,CLR,0.00,VWS V14.01,2013-08-30 14:55:00,
2013-08-30 09:57:00,82.3,74.0,29.75,North,360,7.0,18.0,76,0.00,,SCT250,0.00,VWS V14.01,2013-08-30 14:57:00,
2013-08-30 10:00:00,82.3,74.0,29.75,WSW,250,7.0,17.0,76,0.00,,CLR,0.00,VWS V14.01,2013-08-30 15:00:00,
2013-08-30 10:02:00,82.5,74.6,29.75,North,360,1.0,15.0,77,0.00,,SCT250,0.00,VWS V14.01,2013-08-30 15:02:00,
2013-08-30 10:05:00,82.6,74.7,29.75,North,360,14.0,15.0,77,0.00,,CLR,0.00,VWS V14.01,2013-08-30 15:05:00,
2013-08-30 10:07:00,82.8,74.5,29.75,North,360,12.0,16.0,76,0.00,,SCT250,0.00,VWS V14.01,2013-08-30 15:07:00,
2013-08-30 10:10:00,82.9,74.6,29.75,North,360,8.0,17.0,76,0.00,,CLR,0.00,VWS V14.01,2013-08-30 15:10:00,
2013-08-30 10:12:00,83.1,74.8,29.75,North,360,12.0,17.0,76,0.00,,SCT250,0.00,VWS V14.01,2013-08-30 15:12:00,
2013-08-30 10:15:00,83.2,74.8,29.75,North,360,7.0,13.0,76,0.00,,CLR,0.00,VWS V14.01,2013-08-30 15:15:00,
2013-08-30 10:17:00,83.5,74.8,29.75,SW,227,13.0,19.0,75,0.00,,SCT250,0.00,VWS V14.01,2013-08-30 15:17:00,
2013-08-30 10:20:00,83.6,74.8,29.75,SSW,202,0.0,19.0,75,0.00,,CLR,0.00,VWS V14.01,2013-08-30 15:20:00,
2013-08-30 10:22:00,84.0,74.8,29.75,North,360,14.0,17.0,74,0.00,,SCT250,0.00,VWS V14.01,2013-08-30 15:22:00,
2013-08-30 10:25:00,84.0,74.8,29.75,South,180,5.0,17.0,74,0.00,,CLR,0.00,VWS V14.01,2013-08-30 15:25:00,
2013-08-30 10:27:00,84.2,75.0,29.75,North,360,14.0,19.0,74,0.00,,SCT250,0.00,VWS V14.01,2013-08-30 15:27:00,
2013-08-30 10:30:00,84.2,75.0,29.75,North,360,12.0,19.0,74,0.00,,CLR,0.00,VWS V14.01,2013-08-30 15:30:00,
2013-08-30 10:32:00,84.2,75.0,29.74,North,360,7.0,19.0,74,0.00,,SCT250,0.00,VWS V14.01,2013-08-30 15:32:00,
2013-08-30 10:35:00,84.4,75.2,29.74,North,360,13.0,16.0,74,0.00,,CLR,0.00,VWS V14.01,2013-08-30 15:35:00,
2013-08-30 10:38:00,84.6,75.0,29.74,North,360,6.0,15.0,73,0.00,,SCT250,0.00,VWS V14.01,2013-08-30 15:38:00,
2013-08-30 10:40:00,84.8,75.2,29.74,North,360,13.0,15.0,73,0.00,,CLR,0.00,VWS V14.01,2013-08-30 15:40:00,
2013-08-30 10:43:00,85.0,75.4,29.74,North,360,0.0,15.0,73,0.00,,SCT250,0.00,VWS V14.01,2013-08-30 15:43:00,
2013-08-30 10:45:00,85.2,75.6,29.74,North,360,7.0,13.0,73,0.00,,CLR,0.00,VWS V14.01,2013-08-30 15:45:00,
2013-08-30 10:48:00,85.4,75.8,29.74,SSW,210,2.0,17.0,73,0.00,,SCT250,0.00,VWS V14.01,2013-08-30 15:48:00,
2013-08-30 10:50:00,85.5,75.4,29.74,SSW,207,12.0,16.0,72,0.00,,CLR,0.00,VWS V14.01,2013-08-30 15:50:00,
2013-08-30 10:53:00,85.6,75.5,29.74,SSW,209,7.0,16.0,72,0.00,,SCT250,0.00,VWS V14.01,2013-08-30 15:53:00,
2013-08-30 10:55:00,85.7,75.6,29.74,WSW,238,7.0,16.0,72,0.00,,CLR,0.00,VWS V14.01,2013-08-30 15:55:00,
2013-08-30 10:58:00,86.1,75.6,29.74,West,279,2.0,13.0,71,0.00,,SCT250,0.00,VWS V14.01,2013-08-30 15:58:00,
2013-08-30 11:00:00,86.2,75.7,29.74,SSW,197,6.0,13.0,71,0.00,,CLR,0.00,VWS V14.01,2013-08-30 16:00:00,
2013-08-30 11:03:00,86.6,76.1,29.74,North,360,10.0,12.0,71,0.00,,FEW080,0.00,VWS V14.01,2013-08-30 16:03:00,
2013-08-30 11:05:00,86.6,75.7,29.74,SSE,165,8.0,16.0,70,0.00,,CLR,0.00,VWS V14.01,2013-08-30 16:05:00,
2013-08-30 11:08:00,86.6,76.1,29.73,SW,235,11.0,15.0,71,0.00,,FEW080,0.00,VWS V14.01,2013-08-30 16:08:00,
2013-08-30 11:10:00,86.7,76.2,29.73,WSW,237,5.0,12.0,71,0.00,,CLR,0.00,VWS V14.01,2013-08-30 16:10:00,
2013-08-30 11:13:00,86.9,75.9,29.73,North,360,12.0,16.0,70,0.00,,FEW080,0.00,VWS V14.01,2013-08-30 16:13:00,
2013-08-30 11:15:00,86.8,75.8,29.73,SSW,196,10.0,16.0,70,0.00,,CLR,0.00,VWS V14.01,2013-08-30 16:15:00,
2013-08-30 11:18:00,86.9,76.4,29.73,North,360,8.0,16.0,71,0.00,,FEW080,0.00,VWS V14.01,2013-08-30 16:18:00,
2013-08-30 11:20:00,87.1,76.6,29.73,SW,234,6.0,11.0,71,0.00,,CLR,0.00,VWS V14.01,2013-08-30 16:20:00,
2013-08-30 11:23:00,87.5,76.1,29.73,North,360,10.0,15.0,69,0.00,,FEW080,0.00,VWS V14.01,2013-08-30 16:23:00,
2013-08-30 11:25:00,87.5,76.1,29.73,North,360,3.0,15.0,69,0.00,,CLR,0.00,VWS V14.01,2013-08-30 16:25:00,
2013-08-30 11:28:00,87.8,75.9,29.73,North,360,12.0,15.0,68,0.00,,FEW080,0.00,VWS V14.01,2013-08-30 16:28:00,
2013-08-30 11:30:00,87.8,75.9,29.73,South,186,10.0,15.0,68,0.00,,CLR,0.00,VWS V14.01,2013-08-30 16:30:00,
2013-08-30 11:33:00,87.9,76.0,29.73,SSW,192,11.0,15.0,68,0.00,,FEW080,0.00,VWS V14.01,2013-08-30 16:33:00,
2013-08-30 11:35:00,87.9,76.0,29.73,North,360,14.0,16.0,68,0.00,,CLR,0.00,VWS V14.01,2013-08-30 16:35:00,
2013-08-30 11:38:00,87.9,76.5,29.73,North,360,7.0,17.0,69,0.00,,FEW080,0.00,VWS V14.01,2013-08-30 16:38:00,
2013-08-30 11:40:00,88.0,76.1,29.73,North,360,9.0,17.0,68,0.00,,CLR,0.00,VWS V14.01,2013-08-30 16:40:00,
2013-08-30 11:43:00,88.6,76.2,29.72,SW,234,0.0,11.0,67,0.00,,FEW080,0.00,VWS V14.01,2013-08-30 16:43:00,
2013-08-30 11:45:00,88.7,76.3,29.72,WSW,246,8.0,11.0,67,0.00,,CLR,0.00,VWS V14.01,2013-08-30 16:45:00,
2013-08-30 11:48:00,89.0,76.2,29.72,SSE,163,10.0,17.0,66,0.00,,FEW080,0.00,VWS V14.01,2013-08-30 16:48:00,
2013-08-30 11:50:00,89.0,76.2,29.72,North,360,17.0,20.0,66,0.00,,CLR,0.00,VWS V14.01,2013-08-30 16:50:00,
2013-08-30 11:53:00,88.8,76.4,29.72,SSE,161,0.0,17.0,67,0.00,,FEW080,0.00,VWS V14.01,2013-08-30 16:53:00,
2013-08-30 11:55:00,88.8,76.4,29.72,North,360,10.0,17.0,67,0.00,,CLR,0.00,VWS V14.01,2013-08-30 16:55:00,
2013-08-30 11:58:00,89.0,76.2,29.72,North,360,9.0,15.0,66,0.00,,FEW080,0.00,VWS V14.01,2013-08-30 16:58:00,
2013-08-30 12:00:00,89.0,76.2,29.72,SW,235,0.0,15.0,66,0.00,,CLR,0.00,VWS V14.01,2013-08-30 17:00:00,
2013-08-30 12:03:00,89.5,76.2,29.72,North,360,0.0,11.0,65,0.00,,FEW070,0.00,VWS V14.01,2013-08-30 17:03:00,
2013-08-30 12:05:00,89.5,76.2,29.72,WSW,238,9.0,12.0,65,0.00,,CLR,0.00,VWS V14.01,2013-08-30 17:05:00,
2013-08-30 12:08:00,89.8,76.0,29.72,North,360,12.0,16.0,64,0.00,,FEW070,0.00,VWS V14.01,2013-08-30 17:08:00,
2013-08-30 12:10:00,89.8,75.5,29.72,SSW,213,12.0,19.0,63,0.00,,CLR,0.00,VWS V14.01,2013-08-30 17:10:00,
2013-08-30 12:13:00,90.1,75.3,29.72,North,360,10.0,17.0,62,0.00,,FEW070,0.00,VWS V14.01,2013-08-30 17:13:00,
2013-08-30 12:15:00,90.1,75.3,29.72,WSW,246,13.0,17.0,62,0.00,,CLR,0.00,VWS V14.01,2013-08-30 17:15:00,
2013-08-30 12:18:00,90.5,74.7,29.71,SSW,208,8.0,18.0,60,0.00,,FEW070,0.00,VWS V14.01,2013-08-30 17:18:00,
2013-08-30 12:20:00,90.5,74.7,29.71,North,360,3.0,18.0,60,0.00,,CLR,0.00,VWS V14.01,2013-08-30 17:20:00,
2013-08-30 12:24:00,90.5,75.7,29.71,North,360,7.0,17.0,62,0.00,,FEW070,0.00,VWS V14.01,2013-08-30 17:24:00,
2013-08-30 12:25:00,90.6,75.8,29.71,North,360,0.0,17.0,62,0.00,,CLR,0.00,VWS V14.01,2013-08-30 17:25:00,
2013-08-30 12:29:00,90.8,75.5,29.70,North,360,16.0,19.0,61,0.00,,FEW070,0.00,VWS V14.01,2013-08-30 17:29:00,
2013-08-30 12:30:00,90.7,75.4,29.70,North,360,10.0,19.0,61,0.00,,CLR,0.00,VWS V14.01,2013-08-30 17:30:00,
2013-08-30 12:34:00,91.1,75.8,29.70,North,360,0.0,11.0,61,0.00,,FEW070,0.00,VWS V14.01,2013-08-30 17:34:00,
2013-08-30 12:35:00,91.1,75.8,29.70,North,360,13.0,15.0,61,0.00,,CLR,0.00,VWS V14.01,2013-08-30 17:35:00,
2013-08-30 12:39:00,91.4,75.6,29.70,North,360,7.0,16.0,60,0.00,,FEW070,0.00,VWS V14.01,2013-08-30 17:39:00,
2013-08-30 12:40:00,91.4,75.6,29.70,WSW,247,5.0,16.0,60,0.00,,CLR,0.00,VWS V14.01,2013-08-30 17:40:00,
2013-08-30 12:44:00,91.5,75.7,29.70,North,360,10.0,17.0,60,0.00,,FEW070,0.00,VWS V14.01,2013-08-30 17:44:00,
2013-08-30 12:45:00,91.5,75.2,29.70,North,360,11.0,17.0,59,0.00,,CLR,0.00,VWS V14.01,2013-08-30 17:45:00,
2013-08-30 12:49:00,91.6,75.2,29.70,North,360,4.0,18.0,59,0.00,,FEW070,0.00,VWS V14.01,2013-08-30 17:49:00,
2013-08-30 12:50:00,91.6,75.2,29.70,North,360,4.0,18.0,59,0.00,,CLR,0.00,VWS V14.01,2013-08-30 17:50:00,
2013-08-30 12:54:00,92.0,75.1,29.70,WSW,240,9.0,20.0,58,0.00,,FEW070,0.00,VWS V14.01,2013-08-30 17:54:00,
2013-08-30 12:55:00,92.0,75.1,29.70,WSW,240,9.0,20.0,58,0.00,,CLR,0.00,VWS V14.01,2013-08-30 17:55:00,
2013-08-30 12:59:00,92.0,74.6,29.70,WSW,256,14.0,18.0,57,0.00,,FEW070,0.00,VWS V14.01,2013-08-30 17:59:00,
2013-08-30 13:00:00,92.0,74.6,29.70,WSW,256,14.0,18.0,57,0.00,,CLR,0.00,VWS V14.01,2013-08-30 18:00:00,
2013-08-30 13:04:00,91.7,73.8,29.69,North,360,8.0,17.0,56,0.00,,FEW060,0.00,VWS V14.01,2013-08-30 18:04:00,
2013-08-30 13:05:00,91.7,73.8,29.69,North,360,3.0,17.0,56,0.00,,CLR,0.00,VWS V14.01,2013-08-30 18:05:00,
2013-08-30 13:09:00,92.0,74.6,29.69,SSE,163,8.0,17.0,57,0.00,,FEW060,0.00,VWS V14.01,2013-08-30 18:09:00,
2013-08-30 13:10:00,92.0,74.6,29.69,SSE,148,3.0,17.0,57,0.00,,CLR,0.00,VWS V14.01,2013-08-30 18:10:00,
2013-08-30 13:14:00,92.6,74.6,29.69,SW,219,0.0,14.0,56,0.00,,FEW060,0.00,VWS V14.01,2013-08-30 18:14:00,
2013-08-30 13:15:00,92.5,74.5,29.69,North,360,4.0,14.0,56,0.00,,CLR,0.00,VWS V14.01,2013-08-30 18:15:00,
2013-08-30 13:19:00,93.3,74.7,29.69,SSW,207,11.0,20.0,55,0.00,,FEW060,0.00,VWS V14.01,2013-08-30 18:19:00,
2013-08-30 13:20:00,93.3,74.7,29.69,North,360,4.0,20.0,55,0.00,,CLR,0.00,VWS V14.01,2013-08-30 18:20:00,
2013-08-30 13:24:00,93.0,73.3,29.69,North,360,8.0,20.0,53,0.00,,FEW060,0.00,VWS V14.01,2013-08-30 18:24:00,
2013-08-30 13:25:00,93.0,73.3,29.69,SW,216,2.0,20.0,53,0.00,,CLR,0.00,VWS V14.01,2013-08-30 18:25:00,
2013-08-30 13:29:00,92.9,72.7,29.69,North,360,7.0,22.0,52,0.00,,FEW060,0.00,VWS V14.01,2013-08-30 18:29:00,
2013-08-30 13:30:00,92.9,73.3,29.69,SSW,196,18.0,22.0,53,0.00,,CLR,0.00,VWS V14.01,2013-08-30 18:30:00,
2013-08-30 13:34:00,93.3,72.5,29.69,North,360,5.0,19.0,51,0.00,,FEW060,0.00,VWS V14.01,2013-08-30 18:34:00,
2013-08-30 13:35:00,93.3,72.5,29.69,SW,217,4.0,19.0,51,0.00,,CLR,0.00,VWS V14.01,2013-08-30 18:35:00,
2013-08-30 13:39:00,93.7,72.3,29.68,West,261,0.0,19.0,50,0.00,,FEW060,0.00,VWS V14.01,2013-08-30 18:39:00,
2013-08-30 13:40:00,93.7,72.3,29.68,SW,236,11.0,19.0,50,0.00,,CLR,0.00,VWS V14.01,2013-08-30 18:40:00,
2013-08-30 13:44:00,93.8,72.4,29.69,North,360,13.0,14.0,50,0.00,,FEW060,0.00,VWS V14.01,2013-08-30 18:44:00,
2013-08-30 13:45:00,93.9,72.4,29.69,West,266,10.0,14.0,50,0.00,,CLR,0.00,VWS V14.01,2013-08-30 18:45:00,
2013-08-30 13:50:00,92.7,72.5,29.69,North,360,7.0,16.0,52,0.00,,FEW060,0.00,VWS V14.01,2013-08-30 18:50:00,
2013-08-30 13:55:00,92.0,72.4,29.68,SW,227,8.0,15.0,53,0.00,,FEW060,0.00,VWS V14.01,2013-08-30 18:55:00,
2013-08-30 14:00:00,91.4,72.4,29.68,North,360,3.0,13.0,54,0.00,,FEW060,0.00,VWS V14.01,2013-08-30 19:00:00,
2013-08-30 14:05:00,91.0,73.1,29.69,WNW,283,3.0,9.0,56,0.00,,FEW060,0.00,VWS V14.01,2013-08-30 19:05:00,
2013-08-30 14:10:00,90.6,73.3,29.69,WSW,257,0.0,9.0,57,0.00,,FEW060,0.00,VWS V14.01,2013-08-30 19:10:00,
2013-08-30 14:15:00,90.3,73.5,29.68,WSW,258,3.0,7.0,58,0.00,,FEW060,0.00,VWS V14.01,2013-08-30 19:15:00,
2013-08-30 14:20:00,90.0,73.8,29.68,North,360,0.0,6.0,59,0.00,,FEW060,0.00,VWS V14.01,2013-08-30 19:20:00,
2013-08-30 14:25:00,89.7,74.5,29.68,West,271,0.0,6.0,61,0.00,,FEW060,0.00,VWS V14.01,2013-08-30 19:25:00,
2013-08-30 14:30:00,89.4,74.7,29.68,West,263,0.0,7.0,62,0.00,,FEW060,0.00,VWS V14.01,2013-08-30 19:30:00,
2013-08-30 14:35:00,89.1,74.4,29.68,West,265,0.0,2.0,62,0.00,,FEW060,0.00,VWS V14.01,2013-08-30 19:35:00,
2013-08-30 14:40:00,89.0,74.8,29.69,West,271,0.0,1.0,63,0.00,,FEW060,0.00,VWS V14.01,2013-08-30 19:40:00,
2013-08-30 14:45:00,88.7,75.0,29.69,West,275,0.0,8.0,64,0.00,,FEW060,0.00,VWS V14.01,2013-08-30 19:45:00,
2013-08-30 14:50:00,88.1,75.3,29.68,WNW,302,1.0,5.0,66,0.00,,FEW060,0.00,VWS V14.01,2013-08-30 19:50:00,
2013-08-30 14:55:00,87.5,76.1,29.68,WNW,300,0.0,10.0,69,0.00,,FEW060,0.00,VWS V14.01,2013-08-30 19:55:00,
2013-08-30 15:00:00,86.3,75.8,29.68,North,360,13.0,17.0,71,0.00,,BKN250,0.00,VWS V14.01,2013-08-30 20:00:00,
2013-08-30 15:05:00,84.9,75.3,29.68,WNW,294,11.0,15.0,73,0.00,,BKN250,0.00,VWS V14.01,2013-08-30 20:05:00,
2013-08-30 15:10:00,83.9,73.9,29.70,North,360,5.0,17.0,72,0.00,,BKN250,0.00,VWS V14.01,2013-08-30 20:10:00,
2013-08-30 15:15:00,83.3,74.2,29.71,WNW,298,4.0,13.0,74,0.00,,BKN250,0.00,VWS V14.01,2013-08-30 20:15:00,
2013-08-30 15:20:00,82.6,73.9,29.70,WNW,286,2.0,10.0,75,0.00,,BKN250,0.00,VWS V14.01,2013-08-30 20:20:00,
2013-08-30 15:25:00,82.0,72.5,29.69,West,267,0.0,16.0,73,0.00,,CLR,0.00,VWS V14.01,2013-08-30 20:25:00,
2013-08-30 15:26:00,81.8,71.9,29.69,WNW,290,12.0,16.0,72,0.00,,BKN250,0.00,VWS V14.01,2013-08-30 20:26:00,
2013-08-30 15:30:00,81.4,70.3,29.69,WNW,290,2.0,17.0,69,0.00,,CLR,0.00,VWS V14.01,2013-08-30 20:30:00,
2013-08-30 15:31:00,81.3,70.2,29.69,WSW,258,8.0,17.0,69,0.00,,BKN250,0.00,VWS V14.01,2013-08-30 20:31:00,
2013-08-30 15:35:00,81.0,69.4,29.68,WNW,297,6.0,12.0,68,0.00,,CLR,0.00,VWS V14.01,2013-08-30 20:35:00,
2013-08-30 15:36:00,80.9,68.9,29.68,WNW,292,7.0,10.0,67,0.00,,BKN250,0.00,VWS V14.01,2013-08-30 20:36:00,
2013-08-30 15:40:00,80.7,68.3,29.69,WNW,297,3.0,12.0,66,0.00,,CLR,0.00,VWS V14.01,2013-08-30 20:40:00,
2013-08-30 15:41:00,80.7,68.3,29.69,WNW,301,4.0,12.0,66,0.00,,BKN250,0.00,VWS V14.01,2013-08-30 20:41:00,
2013-08-30 15:45:00,80.6,68.2,29.69,WNW,298,7.0,12.0,66,0.00,,CLR,0.00,VWS V14.01,2013-08-30 20:45:00,
2013-08-30 15:46:00,80.5,67.2,29.69,North,360,13.0,14.0,64,0.00,,BKN250,0.00,VWS V14.01,2013-08-30 20:46:00,
2013-08-30 15:50:00,80.2,66.0,29.69,West,278,2.0,14.0,62,0.00,,CLR,0.00,VWS V14.01,2013-08-30 20:50:00,
2013-08-30 15:51:00,80.0,65.8,29.69,WNW,291,2.0,14.0,62,0.00,,BKN250,0.00,VWS V14.01,2013-08-30 20:51:00,
2013-08-30 15:55:00,79.8,66.1,29.70,WNW,287,0.0,9.0,63,0.00,,CLR,0.00,VWS V14.01,2013-08-30 20:55:00,
2013-08-30 15:56:00,79.6,65.9,29.70,WNW,298,0.0,9.0,63,0.00,,BKN250,0.00,VWS V14.01,2013-08-30 20:56:00,
2013-08-30 16:00:00,79.4,66.2,29.69,WNW,286,0.0,5.0,64,0.00,,CLR,0.00,VWS V14.01,2013-08-30 21:00:00,
2013-08-30 16:01:00,79.3,66.1,29.69,WNW,302,0.0,5.0,64,0.00,,BKN240,0.00,VWS V14.01,2013-08-30 21:01:00,
2013-08-30 16:05:00,79.2,66.0,29.69,WNW,294,0.0,5.0,64,0.00,,CLR,0.00,VWS V14.01,2013-08-30 21:05:00,
2013-08-30 16:06:00,79.0,66.2,29.70,WNW,293,0.0,5.0,65,0.00,,BKN240,0.00,VWS V14.01,2013-08-30 21:06:00,
2013-08-30 16:10:00,78.9,66.2,29.71,West,275,0.0,2.0,65,0.00,,CLR,0.00,VWS V14.01,2013-08-30 21:10:00,
2013-08-30 16:11:00,78.9,66.2,29.71,West,281,0.0,2.0,65,0.00,,BKN240,0.00,VWS V14.01,2013-08-30 21:11:00,
2013-08-30 16:15:00,78.9,66.2,29.71,NW,309,4.0,4.0,65,0.00,,CLR,0.00,VWS V14.01,2013-08-30 21:15:00,
2013-08-30 16:16:00,78.9,66.2,29.71,NW,304,0.0,6.0,65,0.00,,BKN240,0.00,VWS V14.01,2013-08-30 21:16:00,
2013-08-30 16:20:00,78.9,66.6,29.71,WNW,303,0.0,0.0,66,0.00,,CLR,0.00,VWS V14.01,2013-08-30 21:20:00,
2013-08-30 16:21:00,78.9,66.2,29.70,NW,312,0.0,0.0,65,0.00,,BKN240,0.00,VWS V14.01,2013-08-30 21:21:00,
2013-08-30 16:25:00,78.9,66.2,29.70,NW,312,0.0,0.0,65,0.00,,CLR,0.00,VWS V14.01,2013-08-30 21:25:00,
2013-08-30 16:26:00,78.9,66.2,29.69,NW,312,0.0,0.0,65,0.00,,BKN240,0.00,VWS V14.01,2013-08-30 21:26:00,
2013-08-30 16:30:00,79.0,66.2,29.69,NW,312,0.0,0.0,65,0.00,,CLR,0.00,VWS V14.01,2013-08-30 21:30:00,
2013-08-30 16:31:00,79.0,66.2,29.70,WSW,256,0.0,0.0,65,0.00,,BKN240,0.00,VWS V14.01,2013-08-30 21:31:00,
2013-08-30 16:35:00,79.1,66.3,29.70,North,360,0.0,0.0,65,0.00,,CLR,0.00,VWS V14.01,2013-08-30 21:35:00,
2013-08-30 16:36:00,79.2,66.4,29.70,North,360,0.0,0.0,65,0.00,,BKN240,0.00,VWS V14.01,2013-08-30 21:36:00,
2013-08-30 16:40:00,79.1,66.3,29.70,North,360,3.0,6.0,65,0.00,,CLR,0.00,VWS V14.01,2013-08-30 21:40:00,
2013-08-30 16:41:00,79.1,66.3,29.71,North,360,0.0,6.0,65,0.00,,BKN240,0.00,VWS V14.01,2013-08-30 21:41:00,
2013-08-30 16:45:00,78.9,66.6,29.71,North,360,0.0,5.0,66,0.00,,CLR,0.00,VWS V14.01,2013-08-30 21:45:00,
2013-08-30 16:47:00,78.7,66.4,29.72,North,360,0.0,1.0,66,0.00,,BKN240,0.00,VWS V14.01,2013-08-30 21:47:00,
2013-08-30 16:50:00,78.7,66.4,29.71,North,360,0.0,3.0,66,0.00,,CLR,0.00,VWS V14.01,2013-08-30 21:50:00,
2013-08-30 16:52:00,78.5,66.2,29.71,WSW,240,7.0,8.0,66,0.00,,BKN240,0.00,VWS V14.01,2013-08-30 21:52:00,
2013-08-30 16:55:00,78.4,66.6,29.71,WSW,247,0.0,8.0,67,0.00,,CLR,0.00,VWS V14.01,2013-08-30 21:55:00,
2013-08-30 16:57:00,78.3,66.0,29.70,WSW,253,0.0,1.0,66,0.00,,BKN240,0.00,VWS V14.01,2013-08-30 21:57:00,
2013-08-30 17:00:00,78.2,65.9,29.69,West,262,0.0,0.0,66,0.00,,CLR,0.00,VWS V14.01,2013-08-30 22:00:00,
2013-08-30 17:02:00,78.2,65.5,29.69,West,262,0.0,0.0,65,0.00,,BKN250,0.00,VWS V14.01,2013-08-30 22:02:00,
2013-08-30 17:05:00,78.2,65.5,29.69,West,263,0.0,0.0,65,0.00,,CLR,0.00,VWS V14.01,2013-08-30 22:05:00,
2013-08-30 17:07:00,78.3,65.6,29.69,WSW,258,0.0,0.0,65,0.00,,BKN250,0.00,VWS V14.01,2013-08-30 22:07:00,
2013-08-30 17:10:00,78.4,65.7,29.70,SW,230,0.0,0.0,65,0.00,,CLR,0.00,VWS V14.01,2013-08-30 22:10:00,
2013-08-30 17:12:00,78.5,66.2,29.70,WSW,244,0.0,0.0,66,0.00,,BKN250,0.00,VWS V14.01,2013-08-30 22:12:00,
2013-08-30 17:15:00,78.6,66.7,29.69,SW,236,0.0,0.0,67,0.00,,CLR,0.00,VWS V14.01,2013-08-30 22:15:00,
2013-08-30 17:17:00,78.6,66.7,29.69,West,266,0.0,2.0,67,0.00,,BKN250,0.00,VWS V14.01,2013-08-30 22:17:00,
2013-08-30 17:20:00,78.5,66.6,29.69,West,263,0.0,4.0,67,0.00,,CLR,0.00,VWS V14.01,2013-08-30 22:20:00,
2013-08-30 17:22:00,78.5,66.6,29.70,West,265,0.0,3.0,67,0.00,,BKN250,0.00,VWS V14.01,2013-08-30 22:22:00,
2013-08-30 17:25:00,78.5,66.6,29.70,West,265,0.0,1.0,67,0.00,,CLR,0.00,VWS V14.01,2013-08-30 22:25:00,
2013-08-30 17:27:00,78.8,66.5,29.70,West,265,0.0,0.0,66,0.00,,BKN250,0.00,VWS V14.01,2013-08-30 22:27:00,
2013-08-30 17:30:00,78.9,66.6,29.70,West,265,0.0,0.0,66,0.00,,CLR,0.00,VWS V14.01,2013-08-30 22:30:00,
2013-08-30 17:32:00,79.2,66.4,29.70,NNE,24,11.0,11.0,65,0.00,,BKN250,0.00,VWS V14.01,2013-08-30 22:32:00,
2013-08-30 17:35:00,79.0,66.7,29.70,NE,34,5.0,16.0,66,0.00,,CLR,0.00,VWS V14.01,2013-08-30 22:35:00,
2013-08-30 17:37:00,78.0,67.0,29.70,NNE,13,0.0,14.0,69,0.00,,BKN250,0.00,VWS V14.01,2013-08-30 22:37:00,
2013-08-30 17:40:00,77.8,67.2,29.70,North,349,0.0,15.0,70,0.00,,CLR,0.00,VWS V14.01,2013-08-30 22:40:00,
2013-08-30 17:42:00,77.6,67.5,29.71,NNE,30,0.0,15.0,71,0.00,,BKN250,0.00,VWS V14.01,2013-08-30 22:42:00,
2013-08-30 17:45:00,77.7,68.0,29.71,NNE,19,0.0,9.0,72,0.00,,CLR,0.00,VWS V14.01,2013-08-30 22:45:00,
2013-08-30 17:47:00,77.7,68.4,29.72,NE,34,0.0,6.0,73,0.00,,BKN250,0.00,VWS V14.01,2013-08-30 22:47:00,
2013-08-30 17:50:00,77.6,69.4,29.72,NE,46,3.0,11.0,76,0.00,,CLR,0.00,VWS V14.01,2013-08-30 22:50:00,
2013-08-30 17:52:00,77.1,70.5,29.72,NE,40,5.0,12.0,80,0.00,,BKN250,0.00,VWS V14.01,2013-08-30 22:52:00,
2013-08-30 17:55:00,76.5,69.9,29.72,NNE,23,9.0,12.0,80,0.00,,CLR,0.00,VWS V14.01,2013-08-30 22:55:00,
2013-08-30 17:57:00,75.7,70.5,29.73,NE,38,3.0,18.0,84,0.00,,BKN250,0.00,VWS V14.01,2013-08-30 22:57:00,
2013-08-30 18:00:00,75.5,70.3,29.74,North,5,12.0,18.0,84,0.00,,CLR,0.00,VWS V14.01,2013-08-30 23:00:00,
2013-08-30 18:03:00,74.9,70.1,29.74,NE,35,0.0,12.0,85,0.00,,BKN250,0.00,VWS V14.01,2013-08-30 23:03:00,
2013-08-30 18:05:00,74.8,70.0,29.74,NNE,15,0.0,12.0,85,0.00,,CLR,0.00,VWS V14.01,2013-08-30 23:05:00,
2013-08-30 18:08:00,74.7,70.2,29.74,NE,34,11.0,11.0,86,0.00,,BKN250,0.00,VWS V14.01,2013-08-30 23:08:00,
2013-08-30 18:10:00,74.6,70.1,29.74,NE,36,5.0,11.0,86,0.00,,CLR,0.00,VWS V14.01,2013-08-30 23:10:00,
2013-08-30 18:13:00,74.5,70.4,29.73,NE,34,7.0,11.0,87,0.00,,BKN250,0.00,VWS V14.01,2013-08-30 23:13:00,
2013-08-30 18:15:00,74.5,70.4,29.74,North,11,5.0,15.0,87,0.00,,CLR,0.00,VWS V14.01,2013-08-30 23:15:00,
2013-08-30 18:18:00,74.6,70.5,29.74,North,5,3.0,15.0,87,0.00,,BKN250,0.00,VWS V14.01,2013-08-30 23:18:00,
2013-08-30 18:20:00,74.6,70.5,29.74,NNW,340,4.0,13.0,87,0.00,,CLR,0.00,VWS V14.01,2013-08-30 23:20:00,
2013-08-30 18:23:00,74.6,70.5,29.74,North,5,4.0,12.0,87,0.00,,BKN250,0.00,VWS V14.01,2013-08-30 23:23:00,
2013-08-30 18:25:00,74.5,70.4,29.74,NE,38,11.0,14.0,87,0.00,,CLR,0.00,VWS V14.01,2013-08-30 23:25:00,
2013-08-30 18:28:00,74.4,69.9,29.74,NNE,33,5.0,14.0,86,0.00,,BKN250,0.00,VWS V14.01,2013-08-30 23:28:00,
2013-08-30 18:30:00,74.4,69.9,29.73,NNE,31,7.0,11.0,86,0.00,,CLR,0.00,VWS V14.01,2013-08-30 23:30:00,
2013-08-30 18:33:00,74.3,69.8,29.73,ENE,63,7.0,13.0,86,0.00,,BKN250,0.00,VWS V14.01,2013-08-30 23:33:00,
2013-08-30 18:35:00,74.3,69.8,29.73,NNW,332,0.0,10.0,86,0.00,,CLR,0.00,VWS V14.01,2013-08-30 23:35:00,
2013-08-30 18:38:00,74.2,69.8,29.73,ENE,62,5.0,11.0,86,0.00,,BKN250,0.00,VWS V14.01,2013-08-30 23:38:00,
2013-08-30 18:40:00,74.1,69.7,29.74,NE,42,7.0,11.0,86,0.00,,CLR,0.00,VWS V14.01,2013-08-30 23:40:00,
2013-08-30 18:43:00,73.9,69.1,29.74,NNE,14,9.0,11.0,85,0.00,,BKN250,0.00,VWS V14.01,2013-08-30 23:43:00,
2013-08-30 18:45:00,73.8,69.0,29.74,NNE,30,10.0,11.0,85,0.00,,CLR,0.00,VWS V14.01,2013-08-30 23:45:00,
2013-08-30 18:48:00,73.7,68.9,29.74,NNE,17,7.0,12.0,85,0.00,,BKN250,0.00,VWS V14.01,2013-08-30 23:48:00,
2013-08-30 18:50:00,73.6,68.8,29.74,SE,137,2.0,12.0,85,0.00,,CLR,0.00,VWS V14.01,2013-08-30 23:50:00,
2013-08-30 18:53:00,73.3,68.9,29.74,NNE,27,8.0,14.0,86,0.00,,BKN250,0.00,VWS V14.01,2013-08-30 23:53:00,
2013-08-30 18:55:00,73.3,68.9,29.74,NE,34,10.0,14.0,86,0.00,,CLR,0.00,VWS V14.01,2013-08-30 23:55:00,
2013-08-30 18:58:00,73.0,68.2,29.74,NNE,23,12.0,16.0,85,0.00,,BKN250,0.00,VWS V14.01,2013-08-30 23:58:00,
2013-08-30 19:00:00,73.0,68.2,29.74,NNE,19,10.0,16.0,85,0.00,,CLR,0.00,VWS V14.01,2013-08-31 00:00:00,
2013-08-30 19:04:00,72.7,68.3,29.74,NNE,25,9.0,16.0,86,0.00,,OVC031,0.00,VWS V14.01,2013-08-31 00:04:00,
2013-08-30 19:05:00,72.7,68.3,29.74,NE,36,6.0,16.0,86,0.00,,CLR,0.00,VWS V14.01,2013-08-31 00:05:00,
2013-08-30 19:09:00,72.3,67.9,29.75,NNE,25,14.0,14.0,86,0.00,,OVC031,0.00,VWS V14.01,2013-08-31 00:09:00,
2013-08-30 19:10:00,72.3,67.9,29.75,NNE,18,6.0,14.0,86,0.00,,CLR,0.00,VWS V14.01,2013-08-31 00:10:00,
2013-08-30 19:14:00,72.0,67.6,29.75,NNE,13,8.0,13.0,86,0.00,,OVC031,0.00,VWS V14.01,2013-08-31 00:14:00,
2013-08-30 19:15:00,71.9,67.5,29.75,NNE,23,14.0,14.0,86,0.00,,CLR,0.00,VWS V14.01,2013-08-31 00:15:00,
2013-08-30 19:19:00,71.6,67.5,29.75,NNE,22,10.0,17.0,87,0.00,,OVC031,0.00,VWS V14.01,2013-08-31 00:19:00,
2013-08-30 19:20:00,71.6,67.5,29.75,North,9,10.0,17.0,87,0.00,,CLR,0.00,VWS V14.01,2013-08-31 00:20:00,
2013-08-30 19:24:00,71.3,67.2,29.75,ENE,69,2.0,14.0,87,0.00,,OVC031,0.00,VWS V14.01,2013-08-31 00:24:00,
2013-08-30 19:25:00,71.3,67.2,29.75,ENE,70,3.0,14.0,87,0.00,,CLR,0.00,VWS V14.01,2013-08-31 00:25:00,
2013-08-30 19:29:00,71.1,67.4,29.76,NNE,29,5.0,14.0,88,0.00,,OVC031,0.00,VWS V14.01,2013-08-31 00:29:00,
2013-08-30 19:30:00,71.1,67.4,29.76,NNE,29,5.0,14.0,88,0.00,,CLR,0.00,VWS V14.01,2013-08-31 00:30:00,
2013-08-30 19:34:00,71.0,67.3,29.77,NNE,16,6.0,15.0,88,0.00,,OVC031,0.00,VWS V14.01,2013-08-31 00:34:00,
2013-08-30 19:35:00,71.0,67.3,29.77,NNE,16,6.0,15.0,88,0.00,,CLR,0.00,VWS V14.01,2013-08-31 00:35:00,
2013-08-30 19:39:00,70.8,67.1,29.77,NE,36,5.0,12.0,88,0.00,,OVC031,0.00,VWS V14.01,2013-08-31 00:39:00,
2013-08-30 19:40:00,70.8,67.1,29.77,NNE,22,8.0,12.0,88,0.00,,CLR,0.00,VWS V14.01,2013-08-31 00:40:00,
2013-08-30 19:44:00,70.7,67.0,29.77,NNE,15,12.0,16.0,88,0.00,,OVC031,0.00,VWS V14.01,2013-08-31 00:44:00,
2013-08-30 19:45:00,70.7,67.0,29.77,NNE,32,9.0,13.0,88,0.00,,CLR,0.00,VWS V14.01,2013-08-31 00:45:00,
2013-08-30 19:49:00,70.5,66.8,29.77,NNE,19,13.0,15.0,88,0.00,,OVC031,0.00,VWS V14.01,2013-08-31 00:49:00,
2013-08-30 19:50:00,70.5,66.8,29.77,North,351,9.0,15.0,88,0.00,,CLR,0.00,VWS V14.01,2013-08-31 00:50:00,
2013-08-30 19:54:00,70.3,66.9,29.78,NNE,12,6.0,15.0,89,0.00,,OVC031,0.00,VWS V14.01,2013-08-31 00:54:00,
2013-08-30 19:55:00,70.3,66.9,29.78,NNE,31,8.0,15.0,89,0.00,,CLR,0.00,VWS V14.01,2013-08-31 00:55:00,
2013-08-30 19:59:00,70.1,66.7,29.78,NE,41,10.0,17.0,89,0.00,,OVC031,0.00,VWS V14.01,2013-08-31 00:59:00,
2013-08-30 20:00:00,70.1,66.7,29.78,NNE,32,10.0,17.0,89,0.00,,CLR,0.00,VWS V14.01,2013-08-31 01:00:00,
2013-08-30 20:04:00,69.7,66.3,29.79,North,5,0.0,15.0,89,0.00,,OVC031,0.00,VWS V14.01,2013-08-31 01:04:00,
2013-08-30 20:05:00,69.7,66.3,29.79,North,11,5.0,15.0,89,0.00,,CLR,0.00,VWS V14.01,2013-08-31 01:05:00,
2013-08-30 20:09:00,69.4,66.0,29.79,NE,41,7.0,11.0,89,0.00,,OVC031,0.00,VWS V14.01,2013-08-31 01:09:00,
2013-08-30 20:10:00,69.4,66.0,29.79,NE,53,4.0,11.0,89,0.00,,CLR,0.00,VWS V14.01,2013-08-31 01:10:00,
2013-08-30 20:14:00,69.2,65.8,29.79,North,9,0.0,10.0,89,0.00,,OVC031,0.00,VWS V14.01,2013-08-31 01:14:00,
2013-08-30 20:15:00,69.2,65.8,29.79,NNE,25,4.0,13.0,89,0.00,,CLR,0.00,VWS V14.01,2013-08-31 01:15:00,
2013-08-30 20:19:00,69.0,65.9,29.79,NNE,30,3.0,12.0,90,0.00,,OVC031,0.00,VWS V14.01,2013-08-31 01:19:00,
2013-08-30 20:20:00,69.0,65.9,29.79,NNE,20,1.0,12.0,90,0.00,,CLR,0.00,VWS V14.01,2013-08-31 01:20:00,
2013-08-30 20:24:00,68.7,65.3,29.79,North,360,6.0,13.0,89,0.00,,OVC031,0.00,VWS V14.01,2013-08-31 01:24:00,
2013-08-30 20:25:00,68.7,65.3,29.79,NNE,31,0.0,13.0,89,0.00,,CLR,0.00,VWS V14.01,2013-08-31 01:25:00,
2013-08-30 20:30:00,68.5,65.1,29.80,NNE,31,7.0,8.0,89,0.00,,OVC031,0.00,VWS V14.01,2013-08-31 01:30:00,
2013-08-30 20:35:00,68.5,65.5,29.80,NNE,19,9.0,10.0,90,0.00,,OVC031,0.00,VWS V14.01,2013-08-31 01:35:00,
2013-08-30 20:40:00,68.5,65.5,29.79,NNE,30,7.0,13.0,90,0.00,,OVC031,0.00,VWS V14.01,2013-08-31 01:40:00,
2013-08-30 20:45:00,68.4,65.0,29.80,NE,36,5.0,13.0,89,0.00,,OVC031,0.00,VWS V14.01,2013-08-31 01:45:00,
2013-08-30 20:50:00,68.3,64.9,29.80,NE,44,10.0,15.0,89,0.00,,OVC031,0.00,VWS V14.01,2013-08-31 01:50:00,
2013-08-30 20:55:00,68.3,64.9,29.80,North,355,0.0,12.0,89,0.00,,OVC031,0.00,VWS V14.01,2013-08-31 01:55:00,
2013-08-30 21:00:00,68.3,64.9,29.80,NNW,342,0.0,13.0,89,0.00,,OVC031,0.00,VWS V14.01,2013-08-31 02:00:00,
2013-08-30 21:05:00,68.3,64.9,29.80,North,5,6.0,10.0,89,0.00,,OVC031,0.00,VWS V14.01,2013-08-31 02:05:00,
2013-08-30 21:10:00,68.3,64.6,29.80,NNE,22,8.0,11.0,88,0.00,,OVC031,0.00,VWS V14.01,2013-08-31 02:10:00,
2013-08-30 21:15:00,68.3,64.6,29.80,NNE,20,6.0,12.0,88,0.00,,OVC031,0.00,VWS V14.01,2013-08-31 02:15:00,
2013-08-30 21:20:00,68.2,64.5,29.80,NNE,33,5.0,10.0,88,0.00,,OVC031,0.00,VWS V14.01,2013-08-31 02:20:00,
2013-08-30 21:25:00,68.1,64.1,29.79,NNE,26,5.0,14.0,87,0.00,,OVC031,0.00,VWS V14.01,2013-08-31 02:25:00,
2013-08-30 21:30:00,67.9,63.9,29.80,NNE,32,9.0,12.0,87,0.00,,OVC031,0.00,VWS V14.01,2013-08-31 02:30:00,
2013-08-30 21:35:00,67.8,63.8,29.79,NNE,31,7.0,14.0,87,0.00,,OVC031,0.00,VWS V14.01,2013-08-31 02:35:00,
2013-08-30 21:40:00,67.9,63.9,29.80,North,9,4.0,10.0,87,0.00,,OVC031,0.00,VWS V14.01,2013-08-31 02:40:00,
2013-08-30 21:45:00,67.9,63.9,29.80,NNE,27,11.0,15.0,87,0.00,,CLR,0.00,VWS V14.01,2013-08-31 02:45:00,
2013-08-30 21:46:00,67.9,63.6,29.80,North,350,0.0,13.0,86,0.00,,OVC031,0.00,VWS V14.01,2013-08-31 02:46:00,
2013-08-30 21:50:00,68.0,63.7,29.80,NNE,28,7.0,19.0,86,0.00,,CLR,0.00,VWS V14.01,2013-08-31 02:50:00,
2013-08-30 21:51:00,68.1,63.8,29.80,NNE,30,10.0,19.0,86,0.00,,OVC031,0.00,VWS V14.01,2013-08-31 02:51:00,
2013-08-30 21:55:00,68.2,63.9,29.80,WNW,284,1.0,15.0,86,0.00,,CLR,0.00,VWS V14.01,2013-08-31 02:55:00,
2013-08-30 21:56:00,68.2,63.5,29.79,North,360,5.0,13.0,85,0.00,,OVC031,0.00,VWS V14.01,2013-08-31 02:56:00,
2013-08-30 22:00:00,68.3,63.6,29.79,ESE,105,4.0,13.0,85,0.00,,CLR,0.00,VWS V14.01,2013-08-31 03:00:00,
2013-08-30 22:01:00,68.4,63.7,29.79,North,355,7.0,14.0,85,0.00,,BKN033,0.00,VWS V14.01,2013-08-31 03:01:00,
2013-08-30 22:05:00,68.5,63.5,29.79,NNE,23,10.0,14.0,84,0.00,,CLR,0.00,VWS V14.01,2013-08-31 03:05:00,
2013-08-30 22:06:00,68.5,63.5,29.79,NNE,29,4.0,13.0,84,0.00,,BKN033,0.00,VWS V14.01,2013-08-31 03:06:00,
2013-08-30 22:10:00,68.5,63.5,29.79,NNE,19,8.0,16.0,84,0.00,,CLR,0.00,VWS V14.01,2013-08-31 03:10:00,
2013-08-30 22:11:00,68.5,63.5,29.79,NE,34,7.0,16.0,84,0.00,,BKN033,0.00,VWS V14.01,2013-08-31 03:11:00,
2013-08-30 22:15:00,68.5,63.1,29.79,NNE,13,12.0,13.0,83,0.00,,CLR,0.00,VWS V14.01,2013-08-31 03:15:00,
2013-08-30 22:16:00,68.6,63.2,29.79,NNE,17,11.0,19.0,83,0.00,,BKN033,0.00,VWS V14.01,2013-08-31 03:16:00,
2013-08-30 22:20:00,68.6,63.2,29.79,NNW,333,4.0,14.0,83,0.00,,CLR,0.00,VWS V14.01,2013-08-31 03:20:00,
2013-08-30 22:21:00,68.6,63.2,29.79,NNE,15,3.0,14.0,83,0.00,,BKN033,0.00,VWS V14.01,2013-08-31 03:21:00,
2013-08-30 22:25:00,68.6,63.2,29.79,North,5,5.0,20.0,83,0.00,,CLR,0.00,VWS V14.01,2013-08-31 03:25:00,
2013-08-30 22:26:00,68.6,63.2,29.79,North,5,0.0,20.0,83,0.00,,BKN033,0.00,VWS V14.01,2013-08-31 03:26:00,
2013-08-30 22:30:00,68.6,63.2,29.79,North,5,5.0,11.0,83,0.00,,CLR,0.00,VWS V14.01,2013-08-31 03:30:00,
2013-08-30 22:31:00,68.5,63.1,29.78,NNE,16,4.0,12.0,83,0.00,,BKN033,0.00,VWS V14.01,2013-08-31 03:31:00,
2013-08-30 22:35:00,68.5,63.1,29.78,North,355,3.0,12.0,83,0.00,,CLR,0.00,VWS V14.01,2013-08-31 03:35:00,
2013-08-30 22:36:00,68.5,63.1,29.79,NNE,21,0.0,11.0,83,0.00,,BKN033,0.00,VWS V14.01,2013-08-31 03:36:00,
2013-08-30 22:40:00,68.5,63.1,29.78,NW,315,1.0,11.0,83,0.00,,CLR,0.00,VWS V14.01,2013-08-31 03:40:00,
2013-08-30 22:41:00,68.5,63.1,29.78,North,360,0.0,8.0,83,0.00,,BKN033,0.00,VWS V14.01,2013-08-31 03:41:00,
2013-08-30 22:45:00,68.4,63.0,29.78,NE,46,3.0,6.0,83,0.00,,CLR,0.00,VWS V14.01,2013-08-31 03:45:00,
2013-08-30 22:47:00,68.3,62.9,29.78,NNE,26,2.0,9.0,83,0.00,,BKN033,0.00,VWS V14.01,2013-08-31 03:47:00,
2013-08-30 22:50:00,68.3,62.9,29.78,NNE,13,0.0,9.0,83,0.00,,CLR,0.00,VWS V14.01,2013-08-31 03:50:00,
2013-08-30 22:52:00,68.2,62.8,29.78,NNW,342,0.0,10.0,83,0.00,,BKN033,0.00,VWS V14.01,2013-08-31 03:52:00,
2013-08-30 22:55:00,68.1,62.8,29.79,North,9,0.0,10.0,83,0.00,,CLR,0.00,VWS V14.01,2013-08-31 03:55:00,
2013-08-30 22:57:00,68.1,62.8,29.79,NNW,346,0.0,3.0,83,0.00,,BKN033,0.00,VWS V14.01,2013-08-31 03:57:00,
2013-08-30 23:00:00,68.0,63.0,29.79,NE,34,0.0,3.0,84,0.00,,CLR,0.00,VWS V14.01,2013-08-31 04:00:00,
2013-08-30 23:01:00,68.0,63.0,29.78,NNE,16,0.0,0.0,84,0.00,,BKN050,0.00,VWS V14.01,2013-08-31 04:01:00,
2013-08-30 23:02:00,68.0,63.0,29.79,NW,321,0.0,3.0,84,0.00,,BKN050,0.00,VWS V14.01,2013-08-31 04:02:00,
2013-08-30 23:03:00,67.9,62.9,29.79,NW,321,0.0,3.0,84,0.00,,BKN050,0.00,VWS V14.01,2013-08-31 04:03:00,
2013-08-30 23:05:00,67.9,62.9,29.79,NW,321,0.0,3.0,84,0.00,,CLR,0.00,VWS V14.01,2013-08-31 04:05:00,
2013-08-30 23:06:00,67.9,62.9,29.78,NW,310,0.0,1.0,84,0.00,,BKN050,0.00,VWS V14.01,2013-08-31 04:06:00,
2013-08-30 23:10:00,67.8,62.8,29.79,NE,44,4.0,5.0,84,0.00,,CLR,0.00,VWS V14.01,2013-08-31 04:10:00,
2013-08-30 23:11:00,67.8,62.8,29.79,NW,309,0.0,7.0,84,0.00,,BKN050,0.00,VWS V14.01,2013-08-31 04:11:00,
2013-08-30 23:14:00,67.8,62.8,29.78,NNE,16,0.0,6.0,84,0.00,,BKN050,0.00,VWS V14.01,2013-08-31 04:14:00,
2013-08-30 23:15:00,67.8,62.8,29.78,NNE,16,0.0,6.0,84,0.00,,CLR,0.00,VWS V14.01,2013-08-31 04:15:00,
2013-08-30 23:16:00,67.8,62.8,29.78,NNW,334,0.0,3.0,84,0.00,,BKN050,0.00,VWS V14.01,2013-08-31 04:16:00,
2013-08-30 23:20:00,67.7,62.7,29.78,NNW,345,0.0,2.0,84,0.00,,CLR,0.00,VWS V14.01,2013-08-31 04:20:00,
2013-08-30 23:21:00,67.7,62.7,29.78,NNE,22,0.0,3.0,84,0.00,,BKN050,0.00,VWS V14.01,2013-08-31 04:21:00,
2013-08-30 23:25:00,67.6,62.6,29.78,NNW,336,0.0,9.0,84,0.00,,CLR,0.00,VWS V14.01,2013-08-31 04:25:00,
2013-08-30 23:26:00,67.5,62.8,29.78,NNW,337,5.0,7.0,85,0.00,,BKN050,0.00,VWS V14.01,2013-08-31 04:26:00,
2013-08-30 23:30:00,67.3,62.6,29.78,NNW,347,0.0,7.0,85,0.00,,CLR,0.00,VWS V14.01,2013-08-31 04:30:00,
2013-08-30 23:31:00,67.2,62.5,29.79,NNW,343,3.0,6.0,85,0.00,,BKN050,0.00,VWS V14.01,2013-08-31 04:31:00,
2013-08-30 23:35:00,67.1,62.5,29.79,NNW,336,0.0,6.0,85,0.00,,CLR,0.00,VWS V14.01,2013-08-31 04:35:00,
2013-08-30 23:36:00,67.0,62.7,29.79,NNW,336,0.0,4.0,86,0.00,,BKN050,0.00,VWS V14.01,2013-08-31 04:36:00,
2013-08-30 23:40:00,66.9,62.6,29.79,NNW,336,0.0,0.0,86,0.00,,CLR,0.00,VWS V14.01,2013-08-31 04:40:00,
2013-08-30 23:41:00,66.8,62.5,29.79,NW,325,0.0,0.0,86,0.00,,BKN050,0.00,VWS V14.01,2013-08-31 04:41:00,
2013-08-30 23:45:00,66.8,62.5,29.79,NW,325,0.0,0.0,86,0.00,,CLR,0.00,VWS V14.01,2013-08-31 04:45:00,
2013-08-30 23:46:00,66.7,62.4,29.79,NW,325,0.0,0.0,86,0.00,,BKN050,0.00,VWS V14.01,2013-08-31 04:46:00,
2013-08-30 23:50:00,66.7,62.4,29.78,NW,325,0.0,0.0,86,0.00,,CLR,0.00,VWS V14.01,2013-08-31 04:50:00,
2013-08-30 23:52:00,66.7,62.4,29.78,NNW,335,0.0,0.0,86,0.00,,BKN050,0.00,VWS V14.01,2013-08-31 04:52:00,
2013-08-30 23:55:00,66.7,62.4,29.79,NNW,335,0.0,0.0,86,0.00,,CLR,0.00,VWS V14.01,2013-08-31 04:55:00,
2013-08-30 23:57:00,66.7,62.4,29.78,NNW,335,0.0,0.0,86,0.00,,BKN050,0.00,VWS V14.01,2013-08-31 04:57:00,